Total_Precipitation_Accumulation
0.00 0.00 0.00 0.00 0.00 0.00 0.00 0.00 0.00 0.00 0.00 0.00 0.00 0.00 0.00 0.00 0.00 0.00 0.00 0.00 0.00 0.00 0.00 0.00 0.00 0.00 0.00 0.00 0.00 0.00 0.01 0.04 0.05 0.25 0.28 0.08 0.18 0.49 0.03 0.06 0.03 0.03 0.03 0.08 0.05 0.08 0.06 0.02 0.00 0.00 0.00 0.01 0.01 0.00 0.01 0.01 0.01 0.02 0.01 0.01 0.04 0.03 0.01 0.03 0.02 0.02 0.03 0.02 0.03 0.02 0.03 0.03 0.04 0.03 0.05 0.04 0.07 0.05 0.04 0.05 0.06 0.10 0.16 0.15 0.12 0.10 0.07 0.07 0.09 0.08 0.11 0.06 0.05 0.06 0.07 0.09 0.08
0.00 0.00 0.00 0.00 0.00 0.00 0.00 0.00 0.00 0.00 0.00 0.00 0.00 0.00 0.00 0.00 0.00 0.00 0.00 0.00 0.00 0.00 0.00 0.00 0.00 0.00 0.00 0.00 0.00 0.00 0.01 0.03 0.03 0.02 0.21 0.19 0.16 0.42 0.16 0.04 0.01 0.03 0.05 0.07 0.04 0.04 0.05 0.09 0.01 0.00 0.01 0.01 0.01 0.01 0.01 0.01 0.01 0.01 0.02 0.01 0.02 0.02 0.03 0.02 0.01 0.03 0.03 0.01 0.03 0.04 0.06 0.05 0.05 0.05 0.08 0.08 0.05 0.02 0.03 0.06 0.13 0.15 0.10 0.10 0.12 0.07 0.07 0.12 0.14 0.07 0.07 0.08 0.07 0.08 0.05 0.04 0.04
0.00 0.00 0.00 0.00 0.00 0.00 0.00 0.00 0.00 0.00 0.00 0.00 0.00 0.00 0.00 0.00 0.00 0.00 0.00 0.00 0.00 0.00 0.00 0.00 0.00 0.00 0.00 0.00 0.00 0.02 0.42 0.06 0.02 0.05 0.19 0.20 0.17 0.48 0.25 0.10 0.02 0.02 0.03 0.07 0.06 0.04 0.03 0.06 0.01 0.00 0.06 0.01 0.01 0.01 0.02 0.01 0.01 0.01 0.01 0.02 0.02 0.04 0.02 0.02 0.04 0.02 0.03 0.03 0.05 0.07 0.06 0.07 0.07 0.06 0.05 0.06 0.05 0.04 0.02 0.05 0.13 0.10 0.09 0.09 0.08 0.08 0.08 0.09 0.16 0.17 0.06 0.06 0.04 0.03 0.03 0.02 0.02
0.00 0.00 0.00 0.00 0.00 0.00 0.00 0.00 0.00 0.00 0.00 0.00 0.00 0.00 0.00 0.00 0.00 0.00 0.00 0.00 0.00 0.00 0.00 0.00 0.00 0.00 0.00 0.01 0.06 0.00 0.04 0.11 0.08 0.02 0.18 0.19 0.11 0.16 0.22 0.10 0.05 0.06 0.05 0.07 0.05 0.05 0.02 0.08 0.02 0.01 0.01 0.01 0.01 0.03 0.02 0.02 0.01 0.00 0.01 0.02 0.02 0.01 0.02 0.03 0.03 0.03 0.02 0.04 0.08 0.06 0.07 0.05 0.08 0.15 0.05 0.04 0.02 0.02 0.01 0.02 0.04 0.08 0.05 0.04 0.06 0.07 0.06 0.07 0.06 0.09 0.06 0.02 0.02 0.01 0.01 0.02 0.02
0.00 0.00 0.00 0.00 0.00 0.00 0.00 0.00 0.00 0.00 0.00 0.00 0.00 0.00 0.00 0.00 0.00 0.00 0.00 0.00 0.00 0.00 0.00 0.00 0.00 0.01 0.02 0.01 0.00 0.10 0.12 0.05 0.06 0.05 0.08 0.11 0.06 0.16 0.19 0.16 0.08 0.08 0.07 0.10 0.05 0.04 0.07 0.06 0.02 0.01 0.00 0.02 0.02 0.05 0.02 0.02 0.02 0.01 0.01 0.02 0.02 0.02 0.02 0.03 0.05 0.03 0.04 0.05 0.06 0.06 0.09 0.10 0.08 0.11 0.07 0.07 0.03 0.01 0.01 0.01 0.00 0.02 0.02 0.03 0.01 0.02 0.01 0.02 0.03 0.03 0.01 0.03 0.01 0.02 0.03 0.01 0.02
0.00 0.00 0.00 0.00 0.00 0.00 0.00 0.00 0.00 0.00 0.00 0.00 0.00 0.00 0.00 0.00 0.00 0.00 0.00 0.00 0.00 0.00 0.00 0.00 0.00 0.00 0.01 0.04 0.06 0.08 0.11 0.22 0.07 0.09 0.07 0.11 0.16 0.16 0.17 0.10 0.06 0.07 0.10 0.09 0.05 0.02 0.05 0.05 0.01 0.00 0.00 0.02 0.05 0.04 0.03 0.02 0.03 0.01 0.02 0.02 0.02 0.03 0.02 0.04 0.04 0.03 0.06 0.05 0.05 0.10 0.07 0.06 0.14 0.05 0.04 0.08 0.04 0.04 0.02 0.01 0.00 0.01 0.06 0.03 0.01 0.01 0.02 0.02 0.01 0.01 0.03 0.01 0.01 0.01 0.01 0.01 0.01
0.00 0.00 0.00 0.00 0.00 0.00 0.00 0.00 0.00 0.00 0.00 0.00 0.00 0.00 0.00 0.00 0.00 0.00 0.00 0.00 0.00 0.00 0.00 0.00 0.00 0.00 0.03 0.01 0.01 0.07 0.06 0.04 0.02 0.08 0.05 0.11 0.32 0.17 0.30 0.12 0.04 0.09 0.10 0.10 0.05 0.04 0.05 0.02 0.01 0.01 0.00 0.03 0.09 0.04 0.03 0.04 0.03 0.03 0.02 0.01 0.01 0.01 0.04 0.02 0.03 0.05 0.04 0.06 0.05 0.05 0.08 0.04 0.03 0.04 0.10 0.08 0.13 0.06 0.07 0.03 0.06 0.11 0.05 0.01 0.03 0.02 0.02 0.02 0.02 0.01 0.01 0.02 0.01 0.01 0.00 0.00 0.00
0.00 0.00 0.00 0.00 0.00 0.00 0.00 0.00 0.00 0.00 0.00 0.00 0.00 0.00 0.00 0.00 0.00 0.00 0.00 0.00 0.00 0.00 0.00 0.00 0.00 0.00 0.19 0.00 0.19 0.05 0.03 0.03 0.06 0.05 0.04 0.10 0.14 0.21 0.19 0.11 0.08 0.18 0.21 0.16 0.07 0.04 0.24 0.02 0.01 0.00 0.02 0.03 0.03 0.03 0.03 0.05 0.03 0.03 0.02 0.03 0.01 0.04 0.04 0.03 0.03 0.03 0.04 0.05 0.05 0.08 0.09 0.03 0.04 0.04 0.03 0.04 0.05 0.09 0.04 0.03 0.08 0.12 0.06 0.08 0.06 0.02 0.01 0.01 0.01 0.00 0.00 0.01 0.00 0.00 0.00 0.01 0.00
0.00 0.00 0.00 0.00 0.00 0.00 0.00 0.00 0.00 0.00 0.00 0.00 0.00 0.00 0.00 0.00 0.00 0.00 0.00 0.00 0.00 0.00 0.00 0.00 0.00 0.02 0.19 0.05 0.10 0.06 0.09 0.09 0.05 0.07 0.16 0.33 0.13 0.32 0.23 0.28 0.20 0.23 0.40 0.52 0.12 0.14 0.10 0.02 0.01 0.00 0.02 0.02 0.05 0.05 0.05 0.03 0.05 0.04 0.03 0.09 0.03 0.01 0.02 0.03 0.04 0.06 0.06 0.05 0.06 0.08 0.09 0.03 0.04 0.03 0.04 0.03 0.10 0.07 0.01 0.04 0.06 0.13 0.07 0.04 0.03 0.01 0.01 0.02 0.04 0.07 0.01 0.00 0.00 0.00 0.00 0.00 0.00
0.00 0.00 0.00 0.00 0.00 0.00 0.00 0.00 0.00 0.00 0.00 0.00 0.00 0.00 0.00 0.00 0.00 0.00 0.00 0.00 0.00 0.00 0.00 0.00 0.00 0.02 0.01 0.12 0.10 0.17 0.19 0.12 0.08 0.18 0.33 0.09 0.13 0.14 0.28 0.27 0.24 0.19 0.53 0.53 0.25 0.12 0.10 0.35 0.03 0.01 0.02 0.01 0.03 0.04 0.03 0.01 0.03 0.04 0.06 0.02 0.02 0.01 0.01 0.04 0.02 0.04 0.08 0.06 0.05 0.06 0.09 0.04 0.01 0.03 0.01 0.07 0.10 0.05 0.05 0.02 0.04 0.06 0.07 0.05 0.04 0.02 0.00 0.01 0.04 0.02 0.01 0.00 0.01 0.01 0.00 0.00 0.00
0.00 0.00 0.00 0.00 0.00 0.00 0.00 0.00 0.00 0.00 0.00 0.00 0.00 0.00 0.00 0.00 0.00 0.00 0.00 0.00 0.00 0.00 0.00 0.00 0.00 0.03 0.01 0.22 0.26 0.16 0.10 0.09 0.13 0.25 0.18 0.25 0.13 0.14 0.22 0.29 0.25 0.40 0.77 0.56 0.35 0.11 0.14 0.16 0.29 0.05 0.04 0.05 0.03 0.07 0.08 0.05 0.07 0.06 0.02 0.01 0.01 0.03 0.05 0.01 0.04 0.05 0.07 0.06 0.05 0.06 0.04 0.03 0.02 0.03 0.05 0.09 0.07 0.08 0.04 0.04 0.05 0.09 0.07 0.04 0.01 0.01 0.02 0.01 0.01 0.01 0.02 0.01 0.00 0.00 0.00 0.00 0.00
0.00 0.00 0.00 0.00 0.00 0.00 0.00 0.00 0.00 0.00 0.00 0.00 0.00 0.00 0.00 0.00 0.00 0.00 0.00 0.00 0.00 0.00 0.00 0.00 0.02 0.00 0.10 0.13 0.24 0.44 0.22 0.19 0.12 0.15 0.14 0.13 0.20 0.19 0.22 0.42 0.37 0.48 0.89 0.85 0.24 0.16 0.21 0.24 0.25 0.55 0.10 0.09 0.06 0.12 0.07 0.09 0.04 0.03 0.02 0.04 0.07 0.03 0.02 0.02 0.03 0.06 0.08 0.05 0.04 0.02 0.03 0.04 0.05 0.08 0.05 0.06 0.03 0.04 0.03 0.04 0.06 0.08 0.04 0.05 0.02 0.01 0.01 0.01 0.01 0.00 0.00 0.00 0.00 0.00 0.00 0.00 0.00
0.00 0.00 0.00 0.00 0.00 0.00 0.00 0.00 0.00 0.00 0.00 0.00 0.00 0.00 0.00 0.00 0.00 0.00 0.00 0.00 0.00 0.00 0.00 0.01 0.00 0.09 0.20 0.21 0.24 0.26 0.28 0.27 0.14 0.10 0.15 0.12 0.16 0.15 0.21 0.32 0.47 0.71 1.00 0.49 0.29 0.27 0.27 0.13 0.25 0.30 0.24 0.16 0.08 0.08 0.07 0.10 0.07 0.07 0.10 0.06 0.02 0.03 0.04 0.04 0.06 0.08 0.07 0.04 0.01 0.02 0.05 0.04 0.05 0.11 0.09 0.06 0.02 0.03 0.04 0.04 0.02 0.03 0.04 0.03 0.01 0.00 0.00 0.00 0.00 0.00 0.00 0.00 0.00 0.00 0.00 0.00 0.00
0.00 0.00 0.00 0.00 0.00 0.00 0.00 0.00 0.00 0.00 0.00 0.00 0.00 0.00 0.00 0.00 0.00 0.00 0.00 0.00 0.00 0.00 0.00 0.00 0.00 0.02 0.61 0.14 0.67 0.34 0.31 0.18 0.18 0.16 0.14 0.17 0.16 0.26 0.29 0.39 1.22 1.32 0.75 0.79 0.68 0.74 0.38 0.29 0.32 0.29 0.29 0.27 0.39 0.21 0.12 0.09 0.12 0.10 0.07 0.08 0.06 0.03 0.01 0.06 0.05 0.04 0.06 0.02 0.03 0.07 0.07 0.08 0.07 0.06 0.04 0.03 0.03 0.04 0.01 0.02 0.05 0.03 0.04 0.01 0.00 0.01 0.00 0.00 0.00 0.00 0.00 0.00 0.00 0.00 0.00 0.00 0.00
0.00 0.00 0.00 0.00 0.00 0.00 0.00 0.00 0.00 0.00 0.00 0.00 0.00 0.00 0.00 0.00 0.00 0.00 0.00 0.00 0.01 0.00 0.00 0.00 0.00 0.01 0.73 0.17 0.40 0.24 0.14 0.14 0.11 0.08 0.16 0.22 0.26 0.15 0.32 0.43 0.63 0.89 0.98 0.81 0.70 0.57 0.41 0.47 0.38 0.39 0.48 0.27 0.32 0.25 0.29 0.46 0.09 0.10 0.01 0.02 0.02 0.01 0.02 0.02 0.04 0.04 0.06 0.03 0.02 0.05 0.08 0.08 0.06 0.02 0.01 0.02 0.01 0.01 0.03 0.03 0.06 0.03 0.01 0.01 0.00 0.00 0.00 0.00 0.00 0.00 0.00 0.00 0.00 0.00 0.00 0.00 0.00
0.00 0.00 0.00 0.00 0.00 0.00 0.00 0.00 0.00 0.00 0.00 0.00 0.00 0.00 0.00 0.00 0.00 0.00 0.00 0.00 0.00 0.00 0.00 0.01 0.00 0.09 0.10 0.07 0.17 0.07 0.06 0.11 0.09 0.09 0.15 0.18 0.20 0.21 0.42 0.72 0.99 0.78 0.98 1.59 1.18 0.58 0.57 0.45 0.38 0.38 0.42 0.46 0.35 0.21 0.20 0.18 0.27 0.08 0.05 0.02 0.02 0.04 0.03 0.02 0.01 0.02 0.05 0.09 0.16 0.17 0.19 0.31 0.16 0.19 0.10 0.19 0.10 0.03 0.01 0.12 0.04 0.01 0.01 0.00 0.01 0.00 0.00 0.00 0.00 0.00 0.00 0.00 0.00 0.00 0.00 0.00 0.00
0.00 0.00 0.00 0.00 0.00 0.00 0.00 0.00 0.00 0.00 0.00 0.00 0.00 0.00 0.00 0.00 0.00 0.00 0.00 0.00 0.01 0.00 0.00 0.00 0.09 0.02 0.12 0.12 0.10 0.01 0.06 0.05 0.05 0.09 0.09 0.19 0.19 0.29 0.50 0.73 0.93 1.14 1.02 1.13 1.24 1.06 1.17 0.99 0.62 0.62 0.52 0.34 0.44 0.30 0.19 0.13 0.15 0.16 0.17 0.07 0.05 0.04 0.03 0.02 0.02 0.06 0.11 0.17 0.13 0.29 0.10 0.36 0.27 0.23 0.36 0.28 0.10 0.11 0.02 0.04 0.01 0.00 0.00 0.00 0.00 0.00 0.00 0.00 0.00 0.00 0.00 0.00 0.00 0.00 0.00 0.00 0.00
0.00 0.00 0.00 0.00 0.00 0.00 0.00 0.00 0.00 0.00 0.00 0.00 0.00 0.00 0.00 0.00 0.00 0.00 0.00 0.00 0.00 0.00 0.02 0.02 0.04 0.14 0.15 0.08 0.12 0.05 0.05 0.06 0.09 0.07 0.12 0.15 0.15 0.24 0.42 0.97 0.75 1.20 0.90 1.11 1.50 0.76 0.80 0.72 0.73 0.76 0.68 0.54 0.58 0.43 0.26 0.27 0.24 0.23 0.30 0.26 0.31 0.21 0.18 0.13 0.12 0.11 0.32 0.36 0.22 0.22 0.45 0.53 0.36 0.49 0.43 0.44 0.25 0.13 0.11 0.01 0.00 0.00 0.00 0.00 0.00 0.00 0.00 0.00 0.00 0.00 0.00 0.00 0.00 0.00 0.00 0.01 0.00
0.00 0.00 0.00 0.00 0.00 0.00 0.00 0.00 0.00 0.00 0.00 0.00 0.00 0.00 0.00 0.00 0.00 0.00 0.02 0.01 0.01 0.01 0.04 0.05 0.21 0.21 0.22 0.09 0.04 0.07 0.06 0.08 0.11 0.08 0.07 0.10 0.16 0.18 0.26 0.43 0.87 1.07 1.39 0.97 1.22 1.17 1.29 1.00 1.48 1.04 0.87 0.78 1.01 0.54 0.42 0.32 0.42 0.45 0.50 0.52 0.36 0.28 0.39 0.22 0.12 0.21 0.34 0.19 0.31 0.67 0.80 0.99 0.92 0.56 0.79 0.34 0.29 0.08 0.16 0.03 0.00 0.00 0.00 0.00 0.00 0.00 0.00 0.01 0.00 0.00 0.00 0.00 0.00 0.00 0.03 0.05 0.02
0.00 0.00 0.00 0.00 0.00 0.00 0.00 0.00 0.00 0.00 0.00 0.00 0.00 0.00 0.00 0.00 0.00 0.00 0.01 0.01 0.00 0.03 0.02 0.06 0.23 0.39 0.15 0.17 0.14 0.09 0.10 0.09 0.11 0.14 0.15 0.17 0.25 0.32 0.38 0.42 0.78 1.11 0.72 1.03 1.37 0.96 0.69 0.85 1.15 1.32 1.03 1.72 0.74 0.95 0.55 0.36 0.45 0.83 0.50 0.44 0.47 0.48 0.37 0.35 0.23 0.40 0.62 1.04 0.69 1.18 1.26 1.04 1.15 1.08 0.63 0.49 0.40 0.41 0.30 0.04 0.05 0.01 0.00 0.00 0.00 0.01 0.01 0.01 0.01 0.04 0.01 0.00 0.01 0.03 0.20 0.08 0.06
0.00 0.00 0.00 0.00 0.00 0.00 0.00 0.00 0.00 0.00 0.00 0.00 0.00 0.00 0.00 0.00 0.00 0.00 0.00 0.02 0.00 0.06 0.04 0.03 0.10 0.22 0.17 0.18 0.12 0.12 0.10 0.13 0.21 0.51 1.08 0.47 0.37 0.86 1.21 0.93 1.19 1.32 0.77 1.10 0.83 0.81 0.88 0.77 1.04 0.96 1.29 1.97 0.73 0.78 0.85 0.69 0.45 0.61 0.35 0.40 0.53 0.48 0.62 0.59 0.70 0.87 1.22 1.61 1.21 1.72 1.13 0.94 0.92 0.82 0.67 0.54 0.60 0.54 0.42 0.27 0.23 0.19 0.14 0.11 0.01 0.11 0.12 0.12 0.10 0.08 0.05 0.01 0.10 0.16 0.24 0.21 0.06
0.00 0.00 0.00 0.00 0.00 0.00 0.00 0.00 0.00 0.00 0.00 0.00 0.00 0.00 0.01 0.00 0.00 0.00 0.00 0.00 0.03 0.02 0.05 0.02 0.04 0.44 0.11 0.21 0.22 0.21 0.27 0.29 0.34 0.72 1.67 1.47 1.37 1.24 1.33 2.39 1.47 0.90 1.33 1.38 1.57 1.32 1.12 0.72 0.90 1.04 2.04 1.20 1.28 0.64 1.02 0.60 0.59 0.55 0.54 0.64 0.72 0.91 1.28 1.84 1.60 1.60 1.64 1.50 1.35 1.24 1.29 0.82 0.93 0.97 0.70 0.76 1.06 0.78 0.65 0.75 0.57 0.31 0.31 0.16 0.06 0.32 0.26 0.10 0.18 0.07 0.06 0.04 0.08 0.14 0.37 0.14 0.03
0.00 0.00 0.00 0.00 0.00 0.00 0.00 0.00 0.00 0.00 0.00 0.00 0.00 0.00 0.00 0.00 0.00 0.00 0.00 0.06 0.06 0.04 0.11 0.02 0.06 0.14 0.10 0.12 0.12 0.25 0.42 0.55 1.41 2.12 2.16 2.37 1.99 1.78 1.69 1.87 1.28 1.13 1.24 1.93 1.64 1.92 1.50 1.39 1.26 1.84 1.65 0.93 0.82 0.86 1.03 0.59 0.81 0.80 0.89 0.77 0.78 0.93 1.38 1.76 1.73 1.32 1.60 1.36 1.24 0.98 1.13 0.96 1.02 0.74 0.79 0.84 1.08 0.65 0.71 0.45 0.66 0.63 0.35 0.48 0.17 0.45 0.30 0.06 0.06 0.11 0.04 0.04 0.11 0.11 0.36 0.11 0.09
0.00 0.00 0.00 0.00 0.00 0.00 0.00 0.00 0.00 0.00 0.00 0.00 0.00 0.00 0.00 0.00 0.01 0.00 0.00 0.00 0.03 0.01 0.02 0.02 0.07 0.13 0.10 0.11 0.13 0.24 0.44 1.08 1.78 4.12 4.82 3.00 2.73 3.21 3.37 2.06 1.20 1.35 1.22 1.19 1.36 1.73 1.93 1.14 1.25 1.26 1.44 1.40 1.73 0.90 0.87 0.66 1.04 1.18 1.00 1.03 1.02 0.96 1.40 1.75 1.60 1.83 1.67 1.56 1.03 1.57 1.26 1.01 0.73 0.58 0.71 0.72 0.65 0.72 0.68 0.35 0.38 0.36 0.16 0.13 0.16 0.26 0.39 0.13 0.16 0.06 0.09 0.06 0.14 0.08 0.12 0.14 0.15
0.00 0.00 0.00 0.00 0.00 0.00 0.00 0.00 0.00 0.00 0.00 0.00 0.00 0.00 0.00 0.00 0.01 0.00 0.01 0.00 0.01 0.04 0.00 0.01 0.05 0.11 0.14 0.23 0.58 0.75 1.02 1.66 2.53 3.18 2.91 2.79 2.93 5.02 4.37 3.27 2.04 1.14 1.32 1.41 1.82 1.70 1.31 1.04 0.78 1.39 1.60 1.14 1.82 1.69 0.98 1.01 1.37 1.34 1.03 1.11 0.62 0.70 1.06 1.26 1.11 1.41 1.31 0.85 1.80 1.06 0.96 1.12 0.78 0.95 0.95 0.80 0.93 0.85 0.67 0.62 0.79 0.63 0.55 0.33 0.25 0.22 0.55 0.45 0.25 0.33 0.39 0.18 0.12 0.09 0.21 0.16 0.11
0.00 0.00 0.00 0.00 0.00 0.00 0.00 0.00 0.00 0.00 0.00 0.00 0.00 0.00 0.00 0.00 0.00 0.02 0.11 0.04 0.02 0.02 0.01 0.02 0.04 0.10 0.27 0.33 0.35 0.64 0.76 1.20 1.75 1.71 2.14 2.44 3.08 5.17 3.20 3.28 2.64 1.19 1.71 2.30 1.82 1.41 1.11 0.93 0.93 1.35 1.25 1.53 1.54 1.11 0.64 0.62 0.89 0.81 0.88 0.78 0.79 0.51 0.76 1.00 0.96 1.05 0.99 1.52 0.65 0.51 0.69 0.60 0.72 0.87 0.74 0.67 0.71 1.11 1.07 0.48 0.74 0.99 0.73 0.51 0.56 0.53 0.63 0.49 0.42 0.40 0.43 0.37 0.11 0.08 0.14 0.12 0.14
0.00 0.00 0.00 0.00 0.00 0.00 0.00 0.00 0.00 0.00 0.00 0.00 0.00 0.00 0.00 0.00 0.00 0.18 1.19 0.21 0.06 0.03 0.02 0.05 0.06 0.14 0.39 0.49 0.52 0.71 0.97 1.71 1.48 1.41 2.23 2.51 2.79 3.93 1.84 2.50 2.36 3.32 3.30 2.82 2.65 1.75 1.54 1.19 0.94 1.12 1.45 1.59 1.36 1.31 1.29 1.07 1.03 0.63 0.52 0.83 0.64 0.69 0.88 0.84 0.63 0.61 0.93 0.93 1.33 0.91 0.91 0.52 0.72 0.84 0.83 1.11 1.34 1.41 1.45 0.74 0.79 0.81 0.97 0.93 0.61 0.55 0.65 0.51 0.55 0.52 0.69 0.45 0.36 0.22 0.08 0.27 0.17
0.00 0.00 0.00 0.00 0.00 0.00 0.00 0.00 0.00 0.00 0.00 0.00 0.00 0.00 0.00 0.00 0.00 0.03 0.12 0.77 0.52 0.06 0.05 0.05 0.09 0.23 0.35 0.55 0.66 0.50 1.07 1.15 1.23 1.77 2.60 2.17 2.83 3.16 2.69 2.52 1.78 1.86 2.06 2.86 2.61 2.29 1.50 1.67 1.64 1.17 1.83 1.59 1.00 0.99 0.86 0.99 0.65 0.69 0.70 0.77 0.75 1.20 0.90 0.56 0.59 0.89 0.91 1.04 1.13 1.23 0.81 1.00 0.89 0.62 0.93 0.86 0.93 1.01 1.21 1.14 1.34 1.10 1.03 0.81 0.80 0.77 0.57 0.56 0.52 0.73 0.50 0.26 0.24 0.24 0.18 0.15 0.20
0.00 0.00 0.00 0.00 0.00 0.00 0.00 0.00 0.00 0.00 0.00 0.00 0.00 0.00 0.00 0.00 0.01 0.10 0.11 0.15 0.90 1.16 0.19 0.06 0.11 0.23 0.42 0.34 0.50 0.37 0.49 0.71 1.51 1.43 2.26 2.66 2.90 2.64 1.64 1.53 1.71 1.21 2.03 3.63 2.28 1.75 2.17 1.45 2.32 2.67 2.17 1.30 1.04 0.90 0.64 0.77 0.68 0.81 0.83 0.88 0.81 0.83 0.72 0.51 0.61 0.59 0.57 0.77 0.99 1.03 1.09 0.77 0.82 1.06 1.09 0.81 0.93 1.09 0.99 1.17 1.13 0.89 0.90 0.83 0.79 0.82 0.65 0.41 0.62 0.69 0.55 0.43 0.29 0.25 0.19 0.14 0.35
0.00 0.00 0.00 0.00 0.00 0.00 0.00 0.00 0.00 0.00 0.00 0.00 0.00 0.01 0.00 0.00 0.05 0.07 1.06 0.51 0.68 0.26 0.26 0.23 0.25 0.20 0.27 0.56 0.69 0.92 1.11 0.46 0.95 1.48 2.13 2.08 2.31 1.56 1.28 1.10 0.92 1.38 1.88 1.64 1.94 1.63 1.75 1.68 1.92 2.00 2.31 1.81 1.59 1.24 0.83 0.62 0.62 0.87 0.76 0.89 0.83 0.36 0.73 0.70 0.77 0.89 0.57 0.52 0.56 0.63 0.71 0.88 0.83 0.71 0.89 1.07 0.84 1.12 0.91 0.83 0.71 0.90 0.69 0.68 0.70 0.87 0.76 0.39 0.54 0.51 0.29 0.35 0.29 0.29 0.29 0.15 0.51
0.00 0.00 0.00 0.00 0.00 0.00 0.00 0.00 0.00 0.00 0.00 0.00 0.00 0.01 0.04 0.01 0.11 0.18 1.22 0.80 0.31 0.20 0.38 0.44 0.40 0.53 0.64 0.90 0.90 0.54 0.58 1.35 1.08 1.40 1.65 2.46 1.94 1.16 1.25 1.28 1.70 2.99 3.05 1.30 1.37 1.85 2.23 1.67 1.76 1.89 2.47 2.57 1.60 0.94 0.81 0.98 0.97 0.63 0.54 0.87 0.91 0.75 0.71 0.55 0.34 0.41 0.65 0.88 1.29 0.69 1.01 1.22 1.08 1.20 0.87 0.77 0.86 1.00 0.69 1.04 0.54 0.60 0.75 0.46 0.54 0.62 0.53 0.43 0.52 0.51 0.40 0.40 0.50 1.13 0.26 0.30 0.31
0.00 0.00 0.00 0.00 0.00 0.00 0.00 0.00 0.00 0.00 0.00 0.00 0.00 0.00 0.14 0.04 0.11 0.10 0.16 0.58 0.47 0.72 0.98 1.20 0.83 0.86 1.39 1.53 1.06 1.11 1.51 0.89 1.14 1.41 1.62 2.17 1.61 2.01 1.65 2.26 2.37 2.63 2.27 2.34 1.77 2.04 1.44 1.71 2.49 1.93 1.46 1.66 1.54 1.16 1.01 1.02 1.29 1.12 1.04 0.91 1.17 1.06 1.01 1.15 0.98 0.94 0.63 0.62 0.87 0.62 1.18 0.72 0.91 0.80 0.77 0.75 0.84 0.78 0.45 0.56 0.53 0.62 0.40 0.29 0.52 0.62 0.49 0.33 0.61 0.95 0.53 0.36 0.45 0.50 0.63 0.44 0.45
0.00 0.00 0.00 0.00 0.00 0.00 0.00 0.00 0.00 0.00 0.00 0.00 0.00 0.03 0.11 0.13 0.17 0.09 0.11 0.23 0.59 0.85 1.23 1.11 0.61 1.09 1.35 1.32 1.01 1.38 0.78 1.70 1.39 1.35 1.15 1.60 2.37 1.88 2.40 2.42 2.71 2.53 2.83 2.37 2.56 2.51 1.96 1.86 2.11 1.70 1.69 1.56 1.46 1.25 0.92 1.07 1.42 1.14 1.68 1.44 0.75 1.34 1.41 1.07 1.08 1.36 1.36 0.75 0.41 0.48 0.61 0.71 0.59 1.00 0.97 0.85 1.00 0.94 1.00 0.90 0.82 0.60 0.40 0.26 0.43 0.53 0.50 0.33 0.36 1.05 0.31 0.31 0.47 0.40 0.56 0.39 0.55
0.00 0.00 0.00 0.00 0.00 0.00 0.00 0.00 0.00 0.00 0.00 0.00 0.00 0.00 0.05 0.10 0.19 0.25 0.36 0.81 0.79 0.52 1.51 1.55 1.68 1.18 0.97 1.45 1.03 0.55 1.09 0.71 1.11 0.81 1.45 2.09 1.73 2.65 2.43 2.41 2.94 2.87 2.06 3.11 2.22 2.05 1.76 2.00 1.80 1.81 1.95 1.36 1.40 1.39 1.48 1.89 2.12 1.70 1.09 0.93 1.13 1.09 0.89 1.34 1.20 0.91 1.27 0.66 0.61 0.50 0.69 0.58 0.97 0.66 0.80 0.70 1.05 1.00 1.25 0.57 0.83 0.66 0.63 0.40 0.38 0.56 0.56 0.20 0.32 0.72 0.37 0.33 0.41 0.57 0.46 0.42 0.64
0.00 0.00 0.00 0.00 0.00 0.00 0.00 0.00 0.00 0.00 0.00 0.00 0.00 0.00 0.06 0.10 0.18 0.24 0.83 0.70 0.87 1.24 1.24 1.08 1.02 0.68 0.47 0.44 0.40 0.87 0.64 0.73 0.86 0.98 1.39 2.32 1.80 2.11 1.80 1.98 2.78 2.09 2.93 2.57 2.49 2.60 1.89 1.80 1.83 1.99 2.06 1.62 1.53 1.09 1.97 1.63 1.51 1.56 1.43 1.05 0.90 1.39 1.47 1.13 1.14 1.11 1.31 1.81 1.30 0.72 0.96 1.04 1.20 1.22 1.02 1.05 0.98 0.90 0.90 0.77 0.73 1.04 1.10 0.55 0.45 0.49 0.67 0.35 0.48 0.57 0.68 0.47 0.34 0.46 0.58 0.56 0.61
0.00 0.00 0.01 0.00 0.00 0.00 0.00 0.00 0.00 0.00 0.00 0.00 0.00 0.04 0.05 0.13 0.21 0.67 2.38 1.64 0.80 0.52 0.69 1.07 0.33 0.43 0.42 0.64 0.83 0.65 0.70 1.23 1.58 1.34 1.62 1.18 1.87 2.05 2.44 2.75 3.06 2.06 1.58 1.82 1.31 1.87 2.02 2.12 1.71 1.67 2.24 1.19 1.61 1.31 1.27 1.37 1.53 1.33 0.79 0.81 0.84 0.74 0.79 0.99 1.36 1.33 1.47 1.33 1.01 1.60 1.31 0.93 0.97 0.52 0.60 0.48 0.63 0.75 0.83 0.84 0.89 0.88 0.72 0.76 0.74 0.58 0.53 0.35 0.53 0.64 0.86 0.38 0.46 0.37 0.51 0.50 0.64
0.00 0.00 0.00 0.01 0.00 0.01 0.00 0.00 0.00 0.00 0.00 0.00 0.02 0.11 0.08 0.16 0.16 0.74 1.84 1.37 0.83 1.12 1.07 0.57 0.47 0.32 0.94 0.44 0.63 0.82 1.22 1.95 1.38 2.04 1.39 1.78 1.88 2.21 2.02 1.32 1.44 2.28 1.49 1.99 1.53 1.18 1.39 1.13 1.34 1.95 2.03 1.65 2.07 0.61 0.85 1.09 1.04 1.32 1.73 0.75 1.00 0.82 1.12 0.87 1.29 1.05 1.43 1.36 1.64 1.73 1.04 0.83 0.94 0.41 0.52 0.36 0.52 0.70 0.88 0.82 0.71 0.76 0.58 0.83 0.72 0.57 0.72 0.47 0.48 0.55 0.84 0.60 0.96 1.65 0.85 0.64 0.84
0.00 0.00 0.00 0.00 0.00 0.00 0.00 0.00 0.00 0.00 0.00 0.02 0.05 0.03 0.08 0.09 0.29 1.01 0.48 0.96 0.90 0.56 1.42 1.39 1.54 1.17 0.63 1.11 1.14 1.49 1.30 1.93 1.27 0.86 0.96 1.83 1.23 0.96 0.99 0.98 1.38 1.22 1.22 0.79 1.33 1.01 1.36 1.04 1.64 2.27 2.41 2.32 2.31 1.61 1.06 0.89 1.53 1.41 0.93 0.91 0.73 1.25 1.01 0.81 0.72 1.42 1.07 1.05 1.41 1.15 1.18 0.99 0.59 0.82 0.59 0.46 0.82 0.67 0.84 0.47 0.42 0.61 0.81 0.70 0.76 0.60 0.55 0.32 0.34 0.73 0.67 0.56 0.63 0.79 0.66 0.44 1.24
0.00 0.00 0.00 0.00 0.00 0.00 0.00 0.00 0.00 0.00 0.00 0.03 0.04 0.05 0.14 0.16 0.26 0.57 0.50 0.53 1.31 1.30 1.91 1.98 1.53 0.94 1.17 0.62 0.94 0.52 0.49 0.41 0.38 0.74 0.92 1.25 1.07 0.70 0.73 0.77 1.00 0.95 0.99 1.25 0.68 0.96 1.22 1.74 1.77 2.35 2.28 2.59 2.24 2.07 2.02 2.41 1.82 1.90 1.68 1.31 0.97 1.63 1.76 2.02 1.56 1.16 1.10 0.88 0.63 1.19 0.87 0.36 0.36 0.53 0.57 0.45 0.60 0.65 0.76 0.81 0.64 1.01 0.76 1.01 1.02 1.13 0.73 0.48 0.53 0.58 0.87 0.52 0.57 0.44 0.95 0.88 1.42
0.00 0.00 0.00 0.00 0.00 0.00 0.00 0.00 0.00 0.00 0.00 0.02 0.03 0.04 0.15 0.16 0.24 0.32 0.16 0.32 0.46 1.05 0.57 1.02 2.03 0.86 0.80 1.14 0.61 1.15 0.60 0.72 1.10 0.93 0.75 0.75 0.61 1.02 0.97 0.68 0.88 0.94 1.77 1.20 1.55 1.72 2.57 2.56 1.67 1.45 1.87 1.67 1.62 2.10 2.62 2.44 1.81 1.31 1.44 1.89 2.72 1.96 1.94 1.15 0.92 1.36 1.00 1.43 1.34 1.64 0.70 0.68 0.58 0.45 0.69 0.85 0.65 0.48 0.94 1.09 1.10 1.37 1.18 1.00 0.96 0.96 1.13 0.63 0.78 0.47 0.59 0.55 0.74 0.80 0.73 1.06 0.59
0.00 0.00 0.00 0.00 0.00 0.00 0.00 0.04 0.00 0.00 0.00 0.00 0.03 0.12 0.15 0.17 0.22 0.21 0.20 0.12 0.11 0.25 0.22 0.61 0.64 0.73 0.75 0.87 0.56 0.61 0.49 0.42 0.54 0.53 1.05 0.66 0.54 0.78 1.11 0.80 0.97 1.36 0.73 1.29 1.85 2.02 2.40 1.54 1.44 1.43 1.66 1.63 1.43 2.03 1.28 1.67 1.93 1.69 1.57 1.83 2.21 1.32 1.22 1.39 1.50 1.29 0.81 1.04 1.29 1.14 0.57 0.27 0.21 0.24 1.10 1.37 0.98 0.74 1.08 1.30 0.94 1.16 0.76 0.90 0.96 1.12 0.88 0.82 0.68 0.52 0.52 0.58 0.55 0.56 0.70 0.61 1.21
0.00 0.00 0.00 0.00 0.00 0.00 0.00 0.00 0.01 0.01 0.03 0.10 0.05 0.21 0.25 0.26 0.30 0.23 0.33 0.30 0.24 0.25 0.34 0.47 0.46 0.64 0.40 0.82 0.80 0.49 0.36 0.63 0.94 0.53 0.62 0.73 0.59 0.90 0.85 1.22 1.79 2.07 1.56 1.10 1.26 1.59 1.94 1.32 1.45 1.36 1.64 1.25 1.16 1.90 1.37 1.45 1.42 1.10 1.32 1.18 0.95 0.79 1.11 1.22 1.76 0.90 0.71 0.58 0.50 0.35 0.52 0.30 0.30 0.25 0.54 1.37 1.07 0.67 1.23 1.53 1.62 1.11 1.01 0.95 0.98 1.01 0.84 0.81 0.70 0.72 0.69 0.81 0.91 0.66 0.76 1.35 0.96
0.00 0.00 0.00 0.00 0.00 0.00 0.00 0.01 0.01 0.02 0.01 0.06 0.00 0.06 0.17 0.19 0.22 0.21 0.35 0.29 0.37 0.39 0.48 0.67 0.58 0.42 0.43 0.73 0.90 0.86 0.62 0.47 0.54 0.51 0.43 0.78 1.14 0.94 0.43 1.01 1.93 1.32 1.51 1.12 1.11 1.81 0.89 0.66 1.25 1.62 2.35 1.11 1.54 1.14 0.94 0.86 1.00 0.94 0.82 0.92 1.22 1.05 0.77 1.59 0.98 0.88 0.53 0.54 0.41 0.47 0.55 0.91 0.71 0.72 0.78 1.18 1.01 0.29 0.84 1.17 0.89 0.90 1.04 0.95 1.10 1.25 1.18 0.55 0.56 0.71 0.70 0.84 0.96 1.01 0.82 0.78 0.43
0.00 0.00 0.00 0.00 0.00 0.00 0.00 0.01 0.00 0.02 0.00 0.00 0.00 0.01 0.12 0.27 0.09 0.07 0.20 0.29 0.24 0.52 0.53 0.31 0.41 0.37 0.41 0.63 1.13 1.07 0.36 0.51 0.60 0.41 0.95 1.25 0.96 0.74 0.62 1.06 1.41 1.56 1.62 0.97 1.53 1.62 1.30 0.79 0.68 1.51 1.14 1.43 1.23 0.97 0.64 0.44 0.91 1.03 1.03 1.02 1.38 1.40 1.11 1.42 0.50 0.48 0.58 0.39 0.61 0.59 1.00 1.42 0.87 1.02 1.05 0.66 1.10 0.91 0.98 0.98 1.16 1.00 0.48 0.89 0.80 0.77 0.83 0.76 0.60 0.84 0.83 0.64 0.93 0.71 0.73 0.64 0.61
0.00 0.00 0.00 0.00 0.00 0.00 0.00 0.00 0.01 0.01 0.04 0.06 0.03 0.02 0.08 0.11 0.12 0.07 0.25 0.35 0.25 0.43 0.34 0.24 0.35 0.47 0.71 0.65 0.67 0.70 0.91 0.89 1.06 1.70 0.94 1.52 0.74 1.50 1.17 0.67 0.98 1.06 0.99 1.25 2.00 2.75 1.49 1.15 1.11 1.41 1.23 1.30 0.76 0.91 0.93 1.20 1.38 1.28 1.26 1.62 1.42 1.38 1.10 0.98 0.49 0.18 0.19 0.28 0.39 0.97 0.94 1.77 1.69 1.50 1.41 1.03 0.89 0.71 0.52 0.50 0.60 0.69 0.58 0.58 0.50 0.75 0.89 0.75 0.64 0.65 0.56 0.95 1.00 0.52 0.77 1.13 0.93
0.00 0.00 0.00 0.00 0.00 0.00 0.00 0.00 0.01 0.02 0.01 0.04 0.03 0.03 0.04 0.21 0.09 0.19 0.22 0.16 0.16 0.24 0.26 0.47 0.59 1.11 0.54 0.69 0.38 0.38 0.55 0.31 0.47 0.57 0.72 0.89 1.59 1.33 0.74 0.34 0.70 1.21 2.59 2.36 2.87 2.78 1.49 1.22 1.19 0.62 1.03 1.17 1.24 1.20 0.68 0.92 0.73 1.52 1.72 1.86 1.43 1.36 1.45 0.50 0.49 0.56 0.41 0.67 0.40 1.18 1.34 0.78 0.97 0.76 0.82 1.22 1.17 1.02 0.94 0.72 0.69 0.63 0.64 0.91 0.46 0.68 0.70 0.68 0.59 0.69 0.38 0.82 0.80 0.93 0.75 1.65 0.75
0.00 0.00 0.00 0.00 0.00 0.00 0.00 0.00 0.01 0.11 0.02 0.01 0.03 0.01 0.02 0.22 0.17 0.13 0.16 0.16 0.12 0.19 0.23 0.21 0.27 0.36 0.51 0.60 0.93 0.83 0.30 0.33 0.44 0.75 0.80 1.43 1.83 1.32 0.71 0.79 1.36 1.72 2.58 2.46 3.27 1.46 1.24 1.09 1.35 1.19 0.70 1.04 1.19 0.99 0.58 0.79 0.97 0.80 1.25 1.32 1.66 1.47 0.63 0.68 0.71 0.43 0.55 0.85 0.43 0.66 0.70 0.56 0.43 0.49 0.48 0.63 0.71 0.77 0.81 0.67 0.54 0.58 0.56 0.51 0.62 0.69 0.81 0.91 0.57 0.69 0.61 0.67 0.80 1.06 0.62 1.05 1.43
0.00 0.00 0.00 0.00 0.00 0.00 0.00 0.01 0.02 0.05 0.00 0.02 0.03 0.03 0.06 0.17 0.29 0.22 0.13 0.07 0.10 0.12 0.12 0.16 0.13 0.23 0.32 0.20 0.25 0.22 0.27 0.31 0.40 0.51 0.88 1.40 0.77 0.79 0.64 0.87 1.33 3.06 3.18 2.96 1.65 1.13 1.19 1.05 1.02 0.86 0.78 0.44 0.79 1.21 1.03 1.06 1.58 1.01 1.72 1.71 1.06 0.92 0.70 0.45 0.46 0.27 0.30 0.41 0.40 0.60 0.33 0.28 0.42 0.67 1.29 0.72 0.65 0.48 0.44 0.46 0.51 0.58 0.52 0.40 0.41 0.44 0.49 0.51 0.56 0.68 0.91 0.84 0.63 0.77 0.74 0.95 0.85
0.00 0.00 0.00 0.01 0.08 0.00 0.04 0.01 0.00 0.00 0.02 0.01 0.01 0.02 0.06 0.08 0.23 0.53 0.15 0.11 0.08 0.07 0.10 0.18 0.12 0.13 0.13 0.08 0.12 0.54 0.27 0.43 0.65 0.66 0.78 0.93 0.93 0.84 1.08 1.83 1.06 0.80 2.44 2.18 1.48 1.53 0.91 1.03 1.18 1.34 1.46 0.85 1.42 1.36 1.19 1.66 1.95 1.70 2.46 1.39 0.58 0.57 0.36 0.36 0.26 0.27 0.92 0.63 0.56 0.61 0.48 0.54 0.37 0.64 0.45 0.35 0.33 0.36 0.35 0.41 0.39 0.46 0.47 0.62 0.59 0.52 0.60 0.48 1.04 0.96 0.88 0.81 0.75 0.57 0.67 0.76 0.99
0.00 0.00 0.00 0.02 0.08 0.04 0.01 0.05 0.01 0.04 0.02 0.01 0.01 0.02 0.08 0.28 0.22 0.25 0.14 0.12 0.06 0.04 0.06 0.12 0.07 0.06 0.08 0.08 0.10 0.17 0.19 0.48 0.56 0.77 0.67 0.76 0.62 1.27 1.00 0.79 0.69 0.92 1.82 2.01 1.13 1.03 1.62 1.17 1.04 1.58 1.47 0.92 1.82 1.80 1.20 0.78 2.00 2.34 1.34 0.55 0.37 0.34 0.27 0.31 0.61 0.21 0.18 0.28 0.58 0.24 0.38 0.24 0.30 0.43 0.76 0.59 0.40 0.55 0.82 0.60 0.69 0.47 0.46 0.62 0.90 0.67 0.50 0.53 0.52 0.54 0.62 0.55 0.62 0.66 0.73 0.91 0.81
0.00 0.00 0.00 0.02 0.07 0.02 0.01 0.03 0.06 0.06 0.10 0.06 0.01 0.01 0.11 0.12 1.31 0.27 0.10 0.10 0.04 0.03 0.11 0.05 0.09 0.09 0.16 0.09 0.19 0.19 0.26 0.17 0.25 0.32 0.48 1.05 1.30 1.17 0.89 1.14 0.92 0.68 1.61 1.26 0.73 0.76 0.68 0.67 1.08 1.51 1.66 1.45 1.46 1.94 0.87 1.43 1.64 0.90 1.24 0.86 0.52 0.24 0.28 0.33 0.46 0.34 0.38 0.13 0.23 0.67 0.27 0.24 0.40 0.57 0.75 0.43 0.55 0.47 1.02 0.56 0.53 0.47 0.46 0.56 0.71 0.60 0.61 0.86 1.04 1.07 0.55 0.64 0.95 0.88 0.97 0.77 0.79
0.00 0.00 0.01 0.00 0.03 0.00 0.03 0.18 0.02 0.19 0.08 0.03 0.06 0.10 0.27 0.48 0.85 0.94 0.65 0.07 0.01 0.05 0.07 0.04 0.06 0.08 0.10 0.15 0.16 0.21 0.21 0.20 0.39 0.56 1.10 1.25 1.25 1.22 1.04 0.87 0.86 0.74 0.81 0.65 0.46 0.54 0.90 0.89 1.07 1.65 2.17 2.25 2.07 1.95 2.13 2.53 1.62 0.47 0.31 0.17 0.22 0.39 0.45 0.30 0.29 0.41 0.41 0.16 0.32 0.26 0.66 0.36 0.82 0.22 0.15 0.18 0.45 0.34 0.35 0.58 0.70 0.53 0.86 0.96 0.73 0.73 0.82 0.48 0.61 0.63 0.64 0.45 0.68 0.88 1.10 0.56 0.45
0.06 0.00 0.01 0.00 0.00 0.02 0.00 0.00 0.00 0.00 0.00 0.03 0.02 0.21 0.35 0.20 0.46 0.68 0.56 0.05 0.07 0.14 0.07 0.05 0.27 0.39 0.52 0.62 0.84 0.92 0.88 0.79 0.98 1.31 1.35 1.18 1.23 1.06 1.09 0.55 0.41 0.35 0.45 0.42 0.69 1.10 1.00 1.03 0.82 0.74 0.86 0.81 1.86 1.45 1.25 2.00 1.46 0.92 0.89 0.42 0.32 0.29 0.26 0.11 0.15 0.08 0.23 0.41 0.45 0.49 0.31 0.26 0.62 0.71 0.57 0.65 0.70 0.58 0.40 0.63 0.66 0.83 0.66 0.69 0.62 0.56 0.66 0.50 0.69 0.64 0.55 0.47 0.61 0.51 0.71 0.76 0.85
0.00 0.01 0.05 0.00 0.00 0.01 0.02 0.04 0.01 0.00 0.00 0.15 0.03 0.12 0.39 0.11 0.73 0.67 0.52 0.36 0.25 0.22 0.25 0.42 0.44 0.54 0.62 0.79 0.75 0.87 1.01 1.08 0.83 0.95 0.79 0.76 0.65 0.91 0.91 0.59 0.82 0.47 0.48 0.36 0.50 0.82 0.76 1.14 1.11 0.73 1.08 1.40 1.34 1.26 0.87 0.82 0.95 1.30 0.78 0.41 0.39 0.26 0.25 0.18 0.18 0.11 0.22 0.64 0.44 0.86 0.49 0.54 0.23 0.23 0.38 0.45 0.28 0.27 0.25 0.32 0.50 0.36 0.52 0.51 0.35 0.34 0.39 0.50 0.63 0.82 0.52 0.39 0.43 0.70 0.59 0.75 0.82
0.00 0.06 0.00 0.01 0.03 0.02 0.02 0.01 0.02 0.01 0.00 0.11 0.08 0.10 0.18 0.26 0.60 0.42 0.61 0.55 0.35 0.27 0.25 0.18 0.16 0.14 0.37 0.72 0.98 0.93 0.56 0.59 0.55 0.72 0.70 0.44 0.55 0.50 0.65 0.57 0.46 0.65 1.07 0.56 0.54 0.50 0.32 0.33 0.45 0.39 1.21 1.77 1.90 1.87 1.51 1.95 1.19 1.78 0.96 0.53 0.49 0.34 0.67 0.64 0.43 0.44 0.72 0.65 0.40 0.54 0.34 0.24 0.51 0.51 0.36 0.41 0.21 0.27 0.49 0.27 0.20 0.51 0.32 0.47 0.47 0.52 0.36 0.41 0.50 0.48 0.46 0.52 0.50 1.06 0.85 0.65 0.38
0.00 0.00 0.00 0.00 0.00 0.09 0.05 0.00 0.12 0.00 0.11 0.01 0.27 0.06 0.13 0.23 0.38 0.28 0.33 0.29 0.42 0.27 0.22 0.34 0.36 0.47 0.33 0.35 0.26 0.40 0.42 0.58 0.65 0.72 0.74 0.65 0.57 0.90 0.78 0.71 0.70 0.75 0.40 0.36 0.77 1.28 1.05 0.99 0.43 0.46 0.78 1.95 0.62 0.41 1.43 1.29 0.88 0.52 0.77 0.70 0.61 0.44 0.24 0.35 0.59 0.44 0.45 0.44 0.13 0.24 0.31 0.51 0.35 0.51 0.40 0.32 0.33 0.24 0.67 0.30 0.44 0.24 0.30 0.52 0.43 0.75 0.55 0.40 0.54 0.48 0.48 0.77 0.72 0.81 0.65 0.49 0.49
0.00 0.00 0.00 0.00 0.00 0.02 0.00 0.09 0.05 0.04 0.07 0.09 0.10 0.23 0.50 0.44 0.35 0.23 0.39 0.23 0.16 0.46 0.43 0.32 0.48 0.53 0.70 0.61 0.36 0.41 0.44 0.47 0.43 0.64 0.51 0.83 0.76 0.79 0.79 0.73 0.81 0.82 0.68 1.38 1.55 1.46 1.50 1.42 1.08 1.54 1.31 1.03 1.32 1.04 1.14 1.06 1.02 0.67 0.50 0.60 0.54 0.34 0.16 0.28 0.61 0.51 0.21 0.09 0.37 0.30 0.49 0.17 0.34 0.26 0.22 0.24 0.23 0.23 0.45 0.22 0.16 0.18 0.25 0.26 0.24 0.63 0.43 0.84 0.42 0.53 0.73 0.69 1.09 0.68 0.51 0.75 0.97
0.00 0.00 0.00 0.00 0.01 0.01 0.03 0.03 0.00 0.02 0.02 0.13 0.11 0.19 0.34 0.61 0.32 0.65 0.37 0.13 0.47 0.43 0.54 0.60 0.51 0.46 0.34 0.31 0.48 0.38 0.56 0.41 0.32 0.26 0.54 0.54 0.63 1.04 0.90 0.87 0.84 0.70 0.74 0.75 0.85 0.69 0.64 1.03 1.65 1.58 1.88 1.73 1.43 1.40 1.04 1.56 0.91 1.20 0.73 0.90 0.23 0.45 0.14 0.08 0.22 0.75 0.44 0.49 0.26 0.36 0.44 0.33 0.28 0.51 0.24 0.36 0.16 0.28 0.22 0.10 0.10 0.16 0.21 0.19 0.27 0.27 0.61 0.51 0.94 0.64 0.58 0.88 0.38 0.42 0.54 0.86 0.96